owner,sensor,date,latitude,longitude,vertical_datum,mass_concentration_of_oxygen_in_sea_water,qcFlag 
DISL,ioos:station:DISL:DISL:1,2017-11-01T00:30:00Z,30.2513,-88.0778,1.971,9.42,1111122 
DISL,ioos:station:DISL:DISL:1,2017-11-01T01:30:00Z,30.2513,-88.0778,2.063,8.26,1111122 
DISL,ioos:station:DISL:DISL:1,2017-11-01T02:30:00Z,30.2513,-88.0778,2.095,6.9,1111122 
DISL,ioos:station:DISL:DISL:1,2017-11-01T03:30:00Z,30.2513,-88.0778,2.098,6.56,1111122 
DISL,ioos:station:DISL:DISL:1,2017-11-01T04:30:00Z,30.2513,-88.0778,2.111,7.35,1111122 
DISL,ioos:station:DISL:DISL:1,2017-11-01T05:30:00Z,30.2513,-88.0778,2.122,8.76,1111122 
DISL,ioos:station:DISL:DISL:1,2017-11-01T06:30:00Z,30.2513,-88.0778,2.111,8.99,1111122 
DISL,ioos:station:DISL:DISL:1,2017-11-01T07:30:00Z,30.2513,-88.0778,2.1,8.62,1111122 
DISL,ioos:station:DISL:DISL:1,2017-11-01T08:30:00Z,30.2513,-88.0778,2.101,8.63,1111122 
DISL,ioos:station:DISL:DISL:1,2017-11-01T09:30:00Z,30.2513,-88.0778,2.108,8.83,1111122 
DISL,ioos:station:DISL:DISL:1,2017-11-01T10:30:00Z,30.2513,-88.0778,2.114,8.68,1111122 
DISL,ioos:station:DISL:DISL:1,2017-11-01T11:30:00Z,30.2513,-88.0778,2.127,8.03,1111122 
DISL,ioos:station:DISL:DISL:1,2017-11-01T12:30:00Z,30.2513,-88.0778,2.132,6.16,1111122 
DISL,ioos:station:DISL:DISL:1,2017-11-01T13:30:00Z,30.2513,-88.0778,2.155,6.4,1111122 
DISL,ioos:station:DISL:DISL:1,2017-11-01T14:30:00Z,30.2513,-88.0778,2.187,6.39,1111122 
DISL,ioos:station:DISL:DISL:1,2017-11-01T15:30:00Z,30.2513,-88.0778,2.196,7.07,1111122 
DISL,ioos:station:DISL:DISL:1,2017-11-01T16:30:00Z,30.2513,-88.0778,2.233,7.37,1111122 
DISL,ioos:station:DISL:DISL:1,2017-11-01T17:30:00Z,30.2513,-88.0778,2.231,7.62,1111122 
DISL,ioos:station:DISL:DISL:1,2017-11-01T18:30:00Z,30.2513,-88.0778,2.232,8.19,1111122 
DISL,ioos:station:DISL:DISL:1,2017-11-01T19:30:00Z,30.2513,-88.0778,2.239,8.43,1111122 
DISL,ioos:station:DISL:DISL:1,2017-11-01T20:30:00Z,30.2513,-88.0778,2.234,8.6,1111122 
DISL,ioos:station:DISL:DISL:1,2017-11-01T21:30:00Z,30.2513,-88.0778,2.264,8.67,1111122 
DISL,ioos:station:DISL:DISL:1,2017-11-01T22:30:00Z,30.2513,-88.0778,2.255,7.07,1111122 
DISL,ioos:station:DISL:DISL:1,2017-11-01T23:30:00Z,30.2513,-88.0778,2.259,6.74,1111122 
DISL,ioos:station:DISL:DISL:1,2017-11-02T00:30:00Z,30.2513,-88.0778,2.27,6.76,1111122 
DISL,ioos:station:DISL:DISL:1,2017-11-02T01:30:00Z,30.2513,-88.0778,2.294,7.0,1111122 
DISL,ioos:station:DISL:DISL:1,2017-11-02T02:30:00Z,30.2513,-88.0778,2.287,6.63,1111122 
DISL,ioos:station:DISL:DISL:1,2017-11-02T03:30:00Z,30.2513,-88.0778,2.301,6.51,1111122 
DISL,ioos:station:DISL:DISL:1,2017-11-02T04:30:00Z,30.2513,-88.0778,2.316,6.82,1111122 
DISL,ioos:station:DISL:DISL:1,2017-11-02T05:30:00Z,30.2513,-88.0778,2.3,6.82,1111122 
DISL,ioos:station:DISL:DISL:1,2017-11-02T06:30:00Z,30.2513,-88.0778,2.282,6.16,1111122 
DISL,ioos:station:DISL:DISL:1,2017-11-02T07:30:00Z,30.2513,-88.0778,2.258,5.79,1111122 
DISL,ioos:station:DISL:DISL:1,2017-11-02T08:30:00Z,30.2513,-88.0778,2.234,6.32,1111122 
DISL,ioos:station:DISL:DISL:1,2017-11-02T09:30:00Z,30.2513,-88.0778,2.203,7.13,1111122 
DISL,ioos:station:DISL:DISL:1,2017-11-02T10:30:00Z,30.2513,-88.0778,2.184,7.41,1111122 
DISL,ioos:station:DISL:DISL:1,2017-11-02T11:30:00Z,30.2513,-88.0778,2.151,7.38,1111122 
DISL,ioos:station:DISL:DISL:1,2017-11-02T12:30:00Z,30.2513,-88.0778,2.142,7.58,1111122 
DISL,ioos:station:DISL:DISL:1,2017-11-02T13:30:00Z,30.2513,-88.0778,2.15,7.24,1111122 
DISL,ioos:station:DISL:DISL:1,2017-11-02T14:30:00Z,30.2513,-88.0778,2.169,7.13,1111122 
DISL,ioos:station:DISL:DISL:1,2017-11-02T15:30:00Z,30.2513,-88.0778,2.172,7.07,1111122 
DISL,ioos:station:DISL:DISL:1,2017-11-02T16:30:00Z,30.2513,-88.0778,2.189,6.88,1111122 
DISL,ioos:station:DISL:DISL:1,2017-11-02T17:30:00Z,30.2513,-88.0778,2.196,6.97,1111122 
DISL,ioos:station:DISL:DISL:1,2017-11-02T18:30:00Z,30.2513,-88.0778,2.203,7.85,1111122 
DISL,ioos:station:DISL:DISL:1,2017-11-02T19:30:00Z,30.2513,-88.0778,2.201,8.0,1111122 
DISL,ioos:station:DISL:DISL:1,2017-11-02T20:30:00Z,30.2513,-88.0778,2.214,9.41,1111122 
DISL,ioos:station:DISL:DISL:1,2017-11-02T21:30:00Z,30.2513,-88.0778,2.21,9.57,1111122 
DISL,ioos:station:DISL:DISL:1,2017-11-02T22:30:00Z,30.2513,-88.0778,2.235,9.56,1111122 
DISL,ioos:station:DISL:DISL:1,2017-11-02T23:30:00Z,30.2513,-88.0778,2.235,9.09,1111122 
DISL,ioos:station:DISL:DISL:1,2017-11-03T00:30:00Z,30.2513,-88.0778,2.246,7.64,1111122 
DISL,ioos:station:DISL:DISL:1,2017-11-03T01:30:00Z,30.2513,-88.0778,2.259,6.3,1111122 
DISL,ioos:station:DISL:DISL:1,2017-11-03T02:30:00Z,30.2513,-88.0778,2.272,6.01,1111122 
DISL,ioos:station:DISL:DISL:1,2017-11-03T03:30:00Z,30.2513,-88.0778,2.282,6.01,1111122 
DISL,ioos:station:DISL:DISL:1,2017-11-03T04:30:00Z,30.2513,-88.0778,2.281,6.88,1111122 
DISL,ioos:station:DISL:DISL:1,2017-11-03T05:30:00Z,30.2513,-88.0778,2.252,7.62,1111122 
DISL,ioos:station:DISL:DISL:1,2017-11-03T06:30:00Z,30.2513,-88.0778,2.217,8.02,1111122 
DISL,ioos:station:DISL:DISL:1,2017-11-03T07:30:00Z,30.2513,-88.0778,2.169,8.02,1111122 
DISL,ioos:station:DISL:DISL:1,2017-11-03T08:30:00Z,30.2513,-88.0778,2.121,8.83,1111122 
DISL,ioos:station:DISL:DISL:1,2017-11-03T09:30:00Z,30.2513,-88.0778,2.096,8.57,1111122 
DISL,ioos:station:DISL:DISL:1,2017-11-03T10:30:00Z,30.2513,-88.0778,2.056,8.35,1111122 
DISL,ioos:station:DISL:DISL:1,2017-11-03T11:30:00Z,30.2513,-88.0778,2.05,8.33,1111122 
DISL,ioos:station:DISL:DISL:1,2017-11-03T12:30:00Z,30.2513,-88.0778,2.023,8.48,1111122 
DISL,ioos:station:DISL:DISL:1,2017-11-03T13:30:00Z,30.2513,-88.0778,2.067,8.4,1111122 
DISL,ioos:station:DISL:DISL:1,2017-11-03T14:30:00Z,30.2513,-88.0778,2.034,8.2,1111122 
DISL,ioos:station:DISL:DISL:1,2017-11-03T15:30:00Z,30.2513,-88.0778,2.055,7.57,1111122 
DISL,ioos:station:DISL:DISL:1,2017-11-03T16:30:00Z,30.2513,-88.0778,2.095,7.58,1111122 
DISL,ioos:station:DISL:DISL:1,2017-11-03T17:30:00Z,30.2513,-88.0778,2.134,7.84,1111122 
DISL,ioos:station:DISL:DISL:1,2017-11-03T18:30:00Z,30.2513,-88.0778,2.184,8.25,1111122 
DISL,ioos:station:DISL:DISL:1,2017-11-03T19:30:00Z,30.2513,-88.0778,2.19,7.92,1111122 
DISL,ioos:station:DISL:DISL:1,2017-11-03T20:30:00Z,30.2513,-88.0778,2.214,7.15,1111122 
DISL,ioos:station:DISL:DISL:1,2017-11-03T21:30:00Z,30.2513,-88.0778,2.251,7.22,1111122 
DISL,ioos:station:DISL:DISL:1,2017-11-03T22:30:00Z,30.2513,-88.0778,2.279,7.19,1111122 
DISL,ioos:station:DISL:DISL:1,2017-11-04T00:30:00Z,30.2513,-88.0778,2.335,7.11,1111122 
DISL,ioos:station:DISL:DISL:1,2017-11-04T01:30:00Z,30.2513,-88.0778,2.392,7.04,1111122 
DISL,ioos:station:DISL:DISL:1,2017-11-04T02:30:00Z,30.2513,-88.0778,2.373,7.15,1111122 
DISL,ioos:station:DISL:DISL:1,2017-11-04T03:30:00Z,30.2513,-88.0778,2.401,8.02,1111122 
DISL,ioos:station:DISL:DISL:1,2017-11-04T04:30:00Z,30.2513,-88.0778,2.378,8.15,1111122 
DISL,ioos:station:DISL:DISL:1,2017-11-04T05:30:00Z,30.2513,-88.0778,2.346,8.0,1111122 
DISL,ioos:station:DISL:DISL:1,2017-11-04T06:30:00Z,30.2513,-88.0778,2.282,8.14,1111122 
DISL,ioos:station:DISL:DISL:1,2017-11-04T07:30:00Z,30.2513,-88.0778,2.224,8.31,1111122 
DISL,ioos:station:DISL:DISL:1,2017-11-04T08:30:00Z,30.2513,-88.0778,2.163,7.88,1111122 
DISL,ioos:station:DISL:DISL:1,2017-11-04T09:30:00Z,30.2513,-88.0778,2.1,8.93,1111122 
DISL,ioos:station:DISL:DISL:1,2017-11-04T10:30:00Z,30.2513,-88.0778,2.063,8.77,1111122 
DISL,ioos:station:DISL:DISL:1,2017-11-04T11:30:00Z,30.2513,-88.0778,2.026,8.68,1111122 
DISL,ioos:station:DISL:DISL:1,2017-11-04T12:30:00Z,30.2513,-88.0778,1.98,8.8,1111122 
DISL,ioos:station:DISL:DISL:1,2017-11-04T13:30:00Z,30.2513,-88.0778,1.964,8.9,1111122 
DISL,ioos:station:DISL:DISL:1,2017-11-04T14:30:00Z,30.2513,-88.0778,1.973,8.9,1111122 
DISL,ioos:station:DISL:DISL:1,2017-11-04T15:30:00Z,30.2513,-88.0778,1.982,8.8,1111122 
DISL,ioos:station:DISL:DISL:1,2017-11-04T16:30:00Z,30.2513,-88.0778,2.012,8.09,1111122 
DISL,ioos:station:DISL:DISL:1,2017-11-04T17:30:00Z,30.2513,-88.0778,2.05,7.96,1111122 
DISL,ioos:station:DISL:DISL:1,2017-11-04T18:30:00Z,30.2513,-88.0778,2.084,8.52,1111122 
DISL,ioos:station:DISL:DISL:1,2017-11-04T19:00:00Z,30.2513,-88.0778,2.104,8.66,1111122 
DISL,ioos:station:DISL:DISL:1,2017-11-04T20:30:00Z,30.2513,-88.0778,2.15,7.94,1111122 
DISL,ioos:station:DISL:DISL:1,2017-11-04T21:30:00Z,30.2513,-88.0778,2.208,7.29,1111122 
DISL,ioos:station:DISL:DISL:1,2017-11-04T22:30:00Z,30.2513,-88.0778,2.25,6.92,1111122 
DISL,ioos:station:DISL:DISL:1,2017-11-04T23:30:00Z,30.2513,-88.0778,2.301,6.75,1111122 
DISL,ioos:station:DISL:DISL:1,2017-11-05T00:30:00Z,30.2513,-88.0778,2.351,6.7,1111122 
DISL,ioos:station:DISL:DISL:1,2017-11-05T01:30:00Z,30.2513,-88.0778,2.403,6.56,1111122 
DISL,ioos:station:DISL:DISL:1,2017-11-05T02:00:00Z,30.2513,-88.0778,2.403,6.45,1111122 
DISL,ioos:station:DISL:DISL:1,2017-11-05T03:30:00Z,30.2513,-88.0778,2.435,7.27,1111122 
DISL,ioos:station:DISL:DISL:1,2017-11-05T04:30:00Z,30.2513,-88.0778,2.433,7.84,1111122 
DISL,ioos:station:DISL:DISL:1,2017-11-05T05:30:00Z,30.2513,-88.0778,2.417,7.81,1111122 
DISL,ioos:station:DISL:DISL:1,2017-11-05T06:30:00Z,30.2513,-88.0778,2.359,7.76,1111122 
DISL,ioos:station:DISL:DISL:1,2017-11-05T08:30:00Z,30.2513,-88.0778,2.234,7.82,1111122 
DISL,ioos:station:DISL:DISL:1,2017-11-05T09:30:00Z,30.2513,-88.0778,2.172,6.92,1111122 
DISL,ioos:station:DISL:DISL:1,2017-11-05T10:30:00Z,30.2513,-88.0778,2.095,7.86,1111122 
DISL,ioos:station:DISL:DISL:1,2017-11-05T11:30:00Z,30.2513,-88.0778,2.053,8.55,1111122 
DISL,ioos:station:DISL:DISL:1,2017-11-05T12:30:00Z,30.2513,-88.0778,2.032,8.8,1111122 
DISL,ioos:station:DISL:DISL:1,2017-11-05T13:30:00Z,30.2513,-88.0778,1.973,9.14,1111122 
DISL,ioos:station:DISL:DISL:1,2017-11-05T14:30:00Z,30.2513,-88.0778,1.964,9.31,1111122 
DISL,ioos:station:DISL:DISL:1,2017-11-05T15:30:00Z,30.2513,-88.0778,1.975,9.44,1111122 
DISL,ioos:station:DISL:DISL:1,2017-11-05T16:30:00Z,30.2513,-88.0778,1.982,9.26,1111122 
DISL,ioos:station:DISL:DISL:1,2017-11-05T17:30:00Z,30.2513,-88.0778,2.001,7.98,1111122 
DISL,ioos:station:DISL:DISL:1,2017-11-05T18:30:00Z,30.2513,-88.0778,2.041,8.18,1111122 
DISL,ioos:station:DISL:DISL:1,2017-11-05T19:30:00Z,30.2513,-88.0778,2.075,8.37,1111122 
DISL,ioos:station:DISL:DISL:1,2017-11-05T20:30:00Z,30.2513,-88.0778,2.173,8.68,1111122 
DISL,ioos:station:DISL:DISL:1,2017-11-05T21:30:00Z,30.2513,-88.0778,2.179,7.2,1111122 
DISL,ioos:station:DISL:DISL:1,2017-11-05T22:30:00Z,30.2513,-88.0778,2.243,6.68,1111122 
DISL,ioos:station:DISL:DISL:1,2017-11-05T23:30:00Z,30.2513,-88.0778,2.312,6.55,1111122 
DISL,ioos:station:DISL:DISL:1,2017-11-06T00:30:00Z,30.2513,-88.0778,2.375,6.39,1111122 
DISL,ioos:station:DISL:DISL:1,2017-11-06T01:30:00Z,30.2513,-88.0778,2.429,6.38,1111122 
DISL,ioos:station:DISL:DISL:1,2017-11-06T02:30:00Z,30.2513,-88.0778,2.467,5.83,1111122 
DISL,ioos:station:DISL:DISL:1,2017-11-06T03:30:00Z,30.2513,-88.0778,2.503,6.3,1111122 
DISL,ioos:station:DISL:DISL:1,2017-11-06T04:30:00Z,30.2513,-88.0778,2.512,7.27,1111122 
DISL,ioos:station:DISL:DISL:1,2017-11-06T05:30:00Z,30.2513,-88.0778,2.494,7.54,1111122 
DISL,ioos:station:DISL:DISL:1,2017-11-06T06:30:00Z,30.2513,-88.0778,2.446,7.43,1111122 
DISL,ioos:station:DISL:DISL:1,2017-11-06T07:30:00Z,30.2513,-88.0778,2.389,7.39,1111122 
DISL,ioos:station:DISL:DISL:1,2017-11-06T08:30:00Z,30.2513,-88.0778,2.303,7.33,1111122 
DISL,ioos:station:DISL:DISL:1,2017-11-06T09:30:00Z,30.2513,-88.0778,2.24,7.24,1111122 
DISL,ioos:station:DISL:DISL:1,2017-11-06T10:30:00Z,30.2513,-88.0778,2.168,6.51,1111122 
DISL,ioos:station:DISL:DISL:1,2017-11-06T11:30:00Z,30.2513,-88.0778,2.089,7.43,1111122 
DISL,ioos:station:DISL:DISL:1,2017-11-06T12:30:00Z,30.2513,-88.0778,2.054,8.38,1111122 
DISL,ioos:station:DISL:DISL:1,2017-11-06T13:30:00Z,30.2513,-88.0778,1.997,8.86,1111122 
DISL,ioos:station:DISL:DISL:1,2017-11-06T14:30:00Z,30.2513,-88.0778,1.955,8.95,1111122 
DISL,ioos:station:DISL:DISL:1,2017-11-06T15:30:00Z,30.2513,-88.0778,1.921,9.22,1111122 
DISL,ioos:station:DISL:DISL:1,2017-11-06T16:30:00Z,30.2513,-88.0778,1.902,9.31,1111122 
DISL,ioos:station:DISL:DISL:1,2017-11-06T17:30:00Z,30.2513,-88.0778,1.911,9.56,1111122 
DISL,ioos:station:DISL:DISL:1,2017-11-06T18:00:00Z,30.2513,-88.0778,1.912,9.45,1111122 
DISL,ioos:station:DISL:DISL:1,2017-11-06T19:30:00Z,30.2513,-88.0778,1.95,7.9,1111122 
DISL,ioos:station:DISL:DISL:1,2017-11-06T20:30:00Z,30.2513,-88.0778,1.988,8.68,1111122 
DISL,ioos:station:DISL:DISL:1,2017-11-06T21:30:00Z,30.2513,-88.0778,2.045,9.03,1111122 
DISL,ioos:station:DISL:DISL:1,2017-11-06T22:30:00Z,30.2513,-88.0778,2.107,8.15,1111122 
DISL,ioos:station:DISL:DISL:1,2017-11-06T23:30:00Z,30.2513,-88.0778,2.17,7.22,1111122 
DISL,ioos:station:DISL:DISL:1,2017-11-07T00:30:00Z,30.2513,-88.0778,2.24,6.68,1111122 
DISL,ioos:station:DISL:DISL:1,2017-11-07T01:30:00Z,30.2513,-88.0778,2.31,6.46,1111122 
DISL,ioos:station:DISL:DISL:1,2017-11-07T02:30:00Z,30.2513,-88.0778,2.369,6.36,1111122 
DISL,ioos:station:DISL:DISL:1,2017-11-07T03:30:00Z,30.2513,-88.0778,2.41,6.33,1111122 
DISL,ioos:station:DISL:DISL:1,2017-11-07T04:30:00Z,30.2513,-88.0778,2.44,6.93,1111122 
DISL,ioos:station:DISL:DISL:1,2017-11-07T05:30:00Z,30.2513,-88.0778,2.457,7.71,1111122 
DISL,ioos:station:DISL:DISL:1,2017-11-07T06:00:00Z,30.2513,-88.0778,2.448,7.83,1111122 
DISL,ioos:station:DISL:DISL:1,2017-11-07T08:00:00Z,30.2513,-88.0778,2.372,7.81,1111122 
DISL,ioos:station:DISL:DISL:1,2017-11-07T10:00:00Z,30.2513,-88.0778,2.235,7.38,1111122 
DISL,ioos:station:DISL:DISL:1,2017-11-07T11:30:00Z,30.2513,-88.0778,2.135,6.51,1111122 
DISL,ioos:station:DISL:DISL:1,2017-11-07T12:30:00Z,30.2513,-88.0778,2.077,6.71,1111122 
DISL,ioos:station:DISL:DISL:1,2017-11-07T13:00:00Z,30.2513,-88.0778,2.006,6.95,1111122 
DISL,ioos:station:DISL:DISL:1,2017-11-07T14:30:00Z,30.2513,-88.0778,1.973,7.66,1111122 
DISL,ioos:station:DISL:DISL:1,2017-11-07T15:30:00Z,30.2513,-88.0778,1.921,7.93,1111122 
DISL,ioos:station:DISL:DISL:1,2017-11-07T16:30:00Z,30.2513,-88.0778,1.903,8.13,1111122 
DISL,ioos:station:DISL:DISL:1,2017-11-07T17:30:00Z,30.2513,-88.0778,1.922,8.32,1111122 
DISL,ioos:station:DISL:DISL:1,2017-11-07T18:30:00Z,30.2513,-88.0778,1.929,8.03,1111122 
DISL,ioos:station:DISL:DISL:1,2017-11-07T19:30:00Z,30.2513,-88.0778,1.951,7.68,1111122 
DISL,ioos:station:DISL:DISL:1,2017-11-07T20:30:00Z,30.2513,-88.0778,2.015,7.91,1111122 
DISL,ioos:station:DISL:DISL:1,2017-11-07T21:30:00Z,30.2513,-88.0778,2.03,8.03,1111122 
DISL,ioos:station:DISL:DISL:1,2017-11-07T22:30:00Z,30.2513,-88.0778,2.1,7.92,1111122 
DISL,ioos:station:DISL:DISL:1,2017-11-07T23:30:00Z,30.2513,-88.0778,2.163,7.88,1111122 
DISL,ioos:station:DISL:DISL:1,2017-11-08T00:30:00Z,30.2513,-88.0778,2.238,7.54,1111122 
DISL,ioos:station:DISL:DISL:1,2017-11-08T01:30:00Z,30.2513,-88.0778,2.309,7.25,1111122 
DISL,ioos:station:DISL:DISL:1,2017-11-08T02:30:00Z,30.2513,-88.0778,2.366,7.15,1111122 
DISL,ioos:station:DISL:DISL:1,2017-11-08T03:30:00Z,30.2513,-88.0778,2.415,6.76,1111122 
DISL,ioos:station:DISL:DISL:1,2017-11-08T05:30:00Z,30.2513,-88.0778,2.479,7.01,1111122 
DISL,ioos:station:DISL:DISL:1,2017-11-08T06:30:00Z,30.2513,-88.0778,2.475,7.14,1111122 
DISL,ioos:station:DISL:DISL:1,2017-11-08T07:30:00Z,30.2513,-88.0778,2.453,7.11,1111122 
DISL,ioos:station:DISL:DISL:1,2017-11-08T08:30:00Z,30.2513,-88.0778,2.404,7.1,1111122 
DISL,ioos:station:DISL:DISL:1,2017-11-08T09:30:00Z,30.2513,-88.0778,2.334,6.97,1111122 
DISL,ioos:station:DISL:DISL:1,2017-11-08T10:30:00Z,30.2513,-88.0778,2.272,6.83,1111122 
DISL,ioos:station:DISL:DISL:1,2017-11-08T11:30:00Z,30.2513,-88.0778,2.195,6.81,1111122 
DISL,ioos:station:DISL:DISL:1,2017-11-08T12:30:00Z,30.2513,-88.0778,2.15,6.59,1111122 
DISL,ioos:station:DISL:DISL:1,2017-11-08T13:30:00Z,30.2513,-88.0778,2.071,6.49,1111122 
DISL,ioos:station:DISL:DISL:1,2017-11-08T14:30:00Z,30.2513,-88.0778,2.046,7.15,1111122 
DISL,ioos:station:DISL:DISL:1,2017-11-08T15:30:00Z,30.2513,-88.0778,1.981,7.35,1111122 
DISL,ioos:station:DISL:DISL:1,2017-11-08T16:30:00Z,30.2513,-88.0778,1.943,7.77,1111122 
DISL,ioos:station:DISL:DISL:1,2017-11-08T17:30:00Z,30.2513,-88.0778,1.916,8.2,1111122 
DISL,ioos:station:DISL:DISL:1,2017-11-08T18:30:00Z,30.2513,-88.0778,1.918,8.32,1111122 
DISL,ioos:station:DISL:DISL:1,2017-11-08T19:30:00Z,30.2513,-88.0778,1.938,8.3,1111122 
DISL,ioos:station:DISL:DISL:1,2017-11-08T20:30:00Z,30.2513,-88.0778,1.992,8.34,1111122 
DISL,ioos:station:DISL:DISL:1,2017-11-08T21:30:00Z,30.2513,-88.0778,1.982,7.66,1111122 
DISL,ioos:station:DISL:DISL:1,2017-11-08T22:00:00Z,30.2513,-88.0778,2.024,7.02,1111122 
DISL,ioos:station:DISL:DISL:1,2017-11-08T23:30:00Z,30.2513,-88.0778,2.083,7.0,1111122 
DISL,ioos:station:DISL:DISL:1,2017-11-09T00:30:00Z,30.2513,-88.0778,2.143,7.25,1111122 
DISL,ioos:station:DISL:DISL:1,2017-11-09T01:30:00Z,30.2513,-88.0778,2.179,6.46,1111122 
DISL,ioos:station:DISL:DISL:1,2017-11-09T02:30:00Z,30.2513,-88.0778,2.236,6.02,1111122 
DISL,ioos:station:DISL:DISL:1,2017-11-09T03:30:00Z,30.2513,-88.0778,2.318,6.07,1111122 
DISL,ioos:station:DISL:DISL:1,2017-11-09T04:00:00Z,30.2513,-88.0778,2.335,6.02,1111122 
DISL,ioos:station:DISL:DISL:1,2017-11-09T05:30:00Z,30.2513,-88.0778,2.423,6.7,1111122 
DISL,ioos:station:DISL:DISL:1,2017-11-09T06:00:00Z,30.2513,-88.0778,2.407,7.05,1111122 
DISL,ioos:station:DISL:DISL:1,2017-11-09T07:30:00Z,30.2513,-88.0778,2.432,7.25,1111122 
DISL,ioos:station:DISL:DISL:1,2017-11-09T08:30:00Z,30.2513,-88.0778,2.396,7.23,1111122 
DISL,ioos:station:DISL:DISL:1,2017-11-09T09:30:00Z,30.2513,-88.0778,2.353,7.25,1111122 
DISL,ioos:station:DISL:DISL:1,2017-11-09T10:30:00Z,30.2513,-88.0778,2.32,7.24,1111122 
DISL,ioos:station:DISL:DISL:1,2017-11-09T11:30:00Z,30.2513,-88.0778,2.264,7.37,1111122 
DISL,ioos:station:DISL:DISL:1,2017-11-09T12:30:00Z,30.2513,-88.0778,2.201,7.42,1111122 
DISL,ioos:station:DISL:DISL:1,2017-11-09T13:30:00Z,30.2513,-88.0778,2.119,7.75,1111122 
DISL,ioos:station:DISL:DISL:1,2017-11-09T14:30:00Z,30.2513,-88.0778,2.059,7.77,1111122 
DISL,ioos:station:DISL:DISL:1,2017-11-09T15:30:00Z,30.2513,-88.0778,2.002,7.95,1111122 
DISL,ioos:station:DISL:DISL:1,2017-11-09T16:30:00Z,30.2513,-88.0778,1.942,8.11,1111122 
DISL,ioos:station:DISL:DISL:1,2017-11-09T17:30:00Z,30.2513,-88.0778,1.904,8.21,1111122 
DISL,ioos:station:DISL:DISL:1,2017-11-09T18:30:00Z,30.2513,-88.0778,1.91,8.69,1111122 
DISL,ioos:station:DISL:DISL:1,2017-11-09T19:30:00Z,30.2513,-88.0778,1.884,8.23,1111122 
DISL,ioos:station:DISL:DISL:1,2017-11-09T20:30:00Z,30.2513,-88.0778,1.911,8.2,1111122 
DISL,ioos:station:DISL:DISL:1,2017-11-09T21:30:00Z,30.2513,-88.0778,1.916,8.09,1111122 
DISL,ioos:station:DISL:DISL:1,2017-11-09T22:30:00Z,30.2513,-88.0778,1.985,6.64,1111122 
DISL,ioos:station:DISL:DISL:1,2017-11-09T23:30:00Z,30.2513,-88.0778,2.007,7.46,1111122 
DISL,ioos:station:DISL:DISL:1,2017-11-10T00:30:00Z,30.2513,-88.0778,2.061,8.04,1111122 
DISL,ioos:station:DISL:DISL:1,2017-11-10T01:30:00Z,30.2513,-88.0778,2.204,7.31,1111122 
DISL,ioos:station:DISL:DISL:1,2017-11-10T02:30:00Z,30.2513,-88.0778,2.137,5.71,1111122 
DISL,ioos:station:DISL:DISL:1,2017-11-10T03:30:00Z,30.2513,-88.0778,2.191,5.7,1111122 
DISL,ioos:station:DISL:DISL:1,2017-11-10T04:30:00Z,30.2513,-88.0778,2.231,5.76,1111122 
DISL,ioos:station:DISL:DISL:1,2017-11-10T05:30:00Z,30.2513,-88.0778,2.232,5.79,1111122 
DISL,ioos:station:DISL:DISL:1,2017-11-10T06:30:00Z,30.2513,-88.0778,2.303,5.89,1111122 
DISL,ioos:station:DISL:DISL:1,2017-11-10T07:30:00Z,30.2513,-88.0778,2.32,5.82,1111122 
DISL,ioos:station:DISL:DISL:1,2017-11-10T08:30:00Z,30.2513,-88.0778,2.33,5.78,1111122 
DISL,ioos:station:DISL:DISL:1,2017-11-10T09:30:00Z,30.2513,-88.0778,2.337,6.95,1111122 
DISL,ioos:station:DISL:DISL:1,2017-11-10T10:30:00Z,30.2513,-88.0778,2.331,7.94,1111122 
DISL,ioos:station:DISL:DISL:1,2017-11-10T11:30:00Z,30.2513,-88.0778,2.283,7.77,1111122 
DISL,ioos:station:DISL:DISL:1,2017-11-10T12:30:00Z,30.2513,-88.0778,2.235,7.99,1111122 
DISL,ioos:station:DISL:DISL:1,2017-11-10T13:30:00Z,30.2513,-88.0778,2.206,8.16,1111122 
DISL,ioos:station:DISL:DISL:1,2017-11-10T14:30:00Z,30.2513,-88.0778,2.146,8.16,1111122 
DISL,ioos:station:DISL:DISL:1,2017-11-10T15:30:00Z,30.2513,-88.0778,2.084,7.99,1111122 
DISL,ioos:station:DISL:DISL:1,2017-11-10T16:30:00Z,30.2513,-88.0778,2.042,8.41,1111122 
DISL,ioos:station:DISL:DISL:1,2017-11-10T17:30:00Z,30.2513,-88.0778,2.0,8.36,1111122 
DISL,ioos:station:DISL:DISL:1,2017-11-10T18:30:00Z,30.2513,-88.0778,1.956,8.38,1111122 
DISL,ioos:station:DISL:DISL:1,2017-11-10T19:30:00Z,30.2513,-88.0778,1.949,8.48,1111122 
DISL,ioos:station:DISL:DISL:1,2017-11-10T20:30:00Z,30.2513,-88.0778,1.939,8.83,1111122 
DISL,ioos:station:DISL:DISL:1,2017-11-10T21:30:00Z,30.2513,-88.0778,1.969,8.7,1111122 
DISL,ioos:station:DISL:DISL:1,2017-11-10T22:30:00Z,30.2513,-88.0778,2.001,8.61,1111122 
DISL,ioos:station:DISL:DISL:1,2017-11-10T23:30:00Z,30.2513,-88.0778,2.022,8.37,1111122 
DISL,ioos:station:DISL:DISL:1,2017-11-11T00:30:00Z,30.2513,-88.0778,2.059,7.74,1111122 
DISL,ioos:station:DISL:DISL:1,2017-11-11T01:30:00Z,30.2513,-88.0778,2.08,7.43,1111122 
DISL,ioos:station:DISL:DISL:1,2017-11-11T02:30:00Z,30.2513,-88.0778,2.107,6.92,1111122 
DISL,ioos:station:DISL:DISL:1,2017-11-11T03:30:00Z,30.2513,-88.0778,2.142,6.58,1111122 
DISL,ioos:station:DISL:DISL:1,2017-11-11T04:30:00Z,30.2513,-88.0778,2.173,6.08,1111122 
DISL,ioos:station:DISL:DISL:1,2017-11-11T05:30:00Z,30.2513,-88.0778,2.211,5.49,1111122 
DISL,ioos:station:DISL:DISL:1,2017-11-11T06:30:00Z,30.2513,-88.0778,2.253,5.33,1111122 
DISL,ioos:station:DISL:DISL:1,2017-11-11T07:30:00Z,30.2513,-88.0778,2.268,5.48,1111122 
DISL,ioos:station:DISL:DISL:1,2017-11-11T08:30:00Z,30.2513,-88.0778,2.285,6.4,1111122 
DISL,ioos:station:DISL:DISL:1,2017-11-11T09:30:00Z,30.2513,-88.0778,2.303,7.2,1111122 
DISL,ioos:station:DISL:DISL:1,2017-11-11T10:30:00Z,30.2513,-88.0778,2.303,7.77,1111122 
DISL,ioos:station:DISL:DISL:1,2017-11-11T11:30:00Z,30.2513,-88.0778,2.296,7.98,1111122 
DISL,ioos:station:DISL:DISL:1,2017-11-11T12:30:00Z,30.2513,-88.0778,2.272,8.0,1111122 
DISL,ioos:station:DISL:DISL:1,2017-11-11T13:30:00Z,30.2513,-88.0778,2.236,7.96,1111122 
DISL,ioos:station:DISL:DISL:1,2017-11-11T14:30:00Z,30.2513,-88.0778,2.207,8.02,1111122 
DISL,ioos:station:DISL:DISL:1,2017-11-11T15:30:00Z,30.2513,-88.0778,2.174,8.09,1111122 
DISL,ioos:station:DISL:DISL:1,2017-11-11T16:30:00Z,30.2513,-88.0778,2.151,8.17,1111122 
DISL,ioos:station:DISL:DISL:1,2017-11-11T17:30:00Z,30.2513,-88.0778,2.125,8.19,1111122 
DISL,ioos:station:DISL:DISL:1,2017-11-11T18:30:00Z,30.2513,-88.0778,2.113,8.24,1111122 
DISL,ioos:station:DISL:DISL:1,2017-11-11T19:30:00Z,30.2513,-88.0778,2.08,7.3,1111122 
DISL,ioos:station:DISL:DISL:1,2017-11-11T20:30:00Z,30.2513,-88.0778,2.086,7.54,1111122 
DISL,ioos:station:DISL:DISL:1,2017-11-11T21:30:00Z,30.2513,-88.0778,2.094,7.3,1111122 
DISL,ioos:station:DISL:DISL:1,2017-11-11T22:00:00Z,30.2513,-88.0778,2.084,7.52,1111122 
DISL,ioos:station:DISL:DISL:1,2017-11-11T23:30:00Z,30.2513,-88.0778,2.127,7.45,1111122 
DISL,ioos:station:DISL:DISL:1,2017-11-12T00:30:00Z,30.2513,-88.0778,2.161,6.78,1111122 
DISL,ioos:station:DISL:DISL:1,2017-11-12T01:30:00Z,30.2513,-88.0778,2.203,6.67,1111122 
DISL,ioos:station:DISL:DISL:1,2017-11-12T02:00:00Z,30.2513,-88.0778,2.231,6.42,1111122 
DISL,ioos:station:DISL:DISL:1,2017-11-12T04:30:00Z,30.2513,-88.0778,2.309,6.86,1111122 
DISL,ioos:station:DISL:DISL:1,2017-11-12T05:30:00Z,30.2513,-88.0778,2.336,7.27,1111122 
DISL,ioos:station:DISL:DISL:1,2017-11-12T06:30:00Z,30.2513,-88.0778,2.342,7.17,1111122 
DISL,ioos:station:DISL:DISL:1,2017-11-12T07:30:00Z,30.2513,-88.0778,2.361,6.93,1111122 
DISL,ioos:station:DISL:DISL:1,2017-11-12T10:30:00Z,30.2513,-88.0778,2.318,7.34,1111122 
DISL,ioos:station:DISL:DISL:1,2017-11-12T11:30:00Z,30.2513,-88.0778,2.31,7.47,1111122 
DISL,ioos:station:DISL:DISL:1,2017-11-12T13:00:00Z,30.2513,-88.0778,2.284,7.63,1111122 
DISL,ioos:station:DISL:DISL:1,2017-11-12T17:30:00Z,30.2513,-88.0778,2.151,8.12,1111122 
DISL,ioos:station:DISL:DISL:1,2017-11-12T18:30:00Z,30.2513,-88.0778,2.131,7.76,1111122 
DISL,ioos:station:DISL:DISL:1,2017-11-12T19:30:00Z,30.2513,-88.0778,2.126,7.97,1111122 